GPS BIII-3 (PRN 23)

Last updated on Sat Dec 13 2025 00:03:17 GMT+0000 (Coordinated Universal Time)

1 45854U 20041A 25345.22433941 -.00000094 00000+0 00000+0 0 9992 2 45854 56.5461 36.2442 0060460 203.3747 126.9066 2.00561914 40268
UTC large
Height (km)
Speed (km/s)
/
Latitude / Longitude
Inclination (degrees)
Orbital Period (minutes)
Azimuth
Elevation
Range (km)
Doppler Factor

Next 0 passes for location: London (51.5072 / 0.1276)

Sorry there are no passes over London.